Time,TemperatureF,DewpointF,PressureIn,WindDirection,WindDirectionDegrees,WindSpeedMPH,WindSpeedGustMPH,Humidity,HourlyPrecipIn,Conditions,Clouds,dailyrainin,SolarRadiationWatts/m^2,SoftwareType,DateUTC
2013-05-22 00:01:00,65.9,19.9,29.69,North,353,1.0,1.0,17,0.00,,,0.00,0,WeatherCatV1.11B39,2013-05-22 07:01:00,
2013-05-22 00:06:00,66.4,18.9,29.69,North,353,1.0,1.0,16,0.00,,,0.00,0,WeatherCatV1.11B39,2013-05-22 07:06:00,
2013-05-22 00:11:00,65.8,19.8,29.69,North,353,1.0,3.0,17,0.00,,,0.00,0,WeatherCatV1.11B39,2013-05-22 07:11:00,
2013-05-22 00:16:00,66.0,18.5,29.69,North,353,1.0,1.0,16,0.00,,,0.00,0,WeatherCatV1.11B39,2013-05-22 07:16:00,
2013-05-22 00:21:00,66.2,18.7,29.69,North,353,1.0,1.0,16,0.00,,,0.00,0,WeatherCatV1.11B39,2013-05-22 07:21:00,
2013-05-22 00:26:00,65.9,19.9,29.69,North,353,1.0,1.0,17,0.00,,,0.00,0,WeatherCatV1.11B39,2013-05-22 07:26:00,
2013-05-22 00:31:00,65.6,18.2,29.69,North,353,1.0,2.0,16,0.00,,,0.00,0,WeatherCatV1.11B39,2013-05-22 07:31:00,
2013-05-22 00:36:00,65.3,19.4,29.69,North,353,1.0,1.0,17,0.00,,,0.00,0,WeatherCatV1.11B39,2013-05-22 07:36:00,
2013-05-22 00:41:00,64.5,20.1,29.69,North,353,1.0,2.0,18,0.00,,,0.00,0,WeatherCatV1.11B39,2013-05-22 07:41:00,
2013-05-22 00:46:00,64.0,20.9,29.69,North,353,1.0,1.0,19,0.00,,,0.00,0,WeatherCatV1.11B39,2013-05-22 07:46:00,
2013-05-22 00:51:00,64.0,19.7,29.69,North,353,1.0,1.0,18,0.00,,,0.00,0,WeatherCatV1.11B39,2013-05-22 07:51:00,
2013-05-22 00:56:00,63.6,19.3,29.69,North,353,0.0,0.0,18,0.00,,,0.00,0,WeatherCatV1.11B39,2013-05-22 07:56:00,
2013-05-22 01:01:00,63.5,19.2,29.69,North,353,0.0,3.0,18,0.00,,,0.00,0,WeatherCatV1.11B39,2013-05-22 08:01:00,
2013-05-22 01:06:00,63.7,19.4,29.69,North,353,1.0,2.0,18,0.00,,,0.00,0,WeatherCatV1.11B39,2013-05-22 08:06:00,
2013-05-22 01:11:00,63.4,19.2,29.69,North,353,3.0,3.0,18,0.00,,,0.00,0,WeatherCatV1.11B39,2013-05-22 08:11:00,
2013-05-22 01:16:00,63.7,19.4,29.69,North,353,1.0,3.0,18,0.00,,,0.00,0,WeatherCatV1.11B39,2013-05-22 08:16:00,
2013-05-22 01:21:00,63.9,19.6,29.69,North,353,2.0,3.0,18,0.00,,,0.00,0,WeatherCatV1.11B39,2013-05-22 08:21:00,
2013-05-22 01:26:00,63.8,19.5,29.69,North,353,3.0,4.0,18,0.00,,,0.00,0,WeatherCatV1.11B39,2013-05-22 08:26:00,
2013-05-22 01:31:00,64.1,19.7,29.69,North,353,2.0,3.0,18,0.00,,,0.00,0,WeatherCatV1.11B39,2013-05-22 08:31:00,
2013-05-22 01:36:00,64.5,20.1,29.69,North,353,1.0,4.0,18,0.00,,,0.00,0,WeatherCatV1.11B39,2013-05-22 08:36:00,
2013-05-22 01:41:00,64.6,18.8,29.69,North,353,3.0,3.0,17,0.00,,,0.00,0,WeatherCatV1.11B39,2013-05-22 08:41:00,
2013-05-22 01:46:00,64.8,19.0,29.69,North,353,2.0,3.0,17,0.00,,,0.00,0,WeatherCatV1.11B39,2013-05-22 08:46:00,
2013-05-22 01:51:00,64.7,20.2,29.68,North,353,1.0,3.0,18,0.00,,,0.00,0,WeatherCatV1.11B39,2013-05-22 08:51:00,
2013-05-22 01:56:00,64.6,18.8,29.68,North,353,1.0,2.0,17,0.00,,,0.00,0,WeatherCatV1.11B39,2013-05-22 08:56:00,
2013-05-22 02:01:00,65.2,19.3,29.68,North,353,0.0,2.0,17,0.00,,,0.00,0,WeatherCatV1.11B39,2013-05-22 09:01:00,
2013-05-22 02:06:00,64.8,19.0,29.68,North,353,0.0,1.0,17,0.00,,,0.00,0,WeatherCatV1.11B39,2013-05-22 09:06:00,
2013-05-22 02:11:00,64.9,19.1,29.68,North,353,1.0,2.0,17,0.00,,,0.00,0,WeatherCatV1.11B39,2013-05-22 09:11:00,
2013-05-22 02:16:00,65.3,19.4,29.68,North,353,0.0,2.0,17,0.00,,,0.00,0,WeatherCatV1.11B39,2013-05-22 09:16:00,
2013-05-22 02:21:00,65.4,19.5,29.68,North,353,1.0,2.0,17,0.00,,,0.00,0,WeatherCatV1.11B39,2013-05-22 09:21:00,
2013-05-22 02:26:00,65.3,19.4,29.68,North,353,0.0,2.0,17,0.00,,,0.00,0,WeatherCatV1.11B39,2013-05-22 09:26:00,
2013-05-22 02:31:00,65.6,19.6,29.68,North,353,0.0,2.0,17,0.00,,,0.00,0,WeatherCatV1.11B39,2013-05-22 09:31:00,
2013-05-22 02:36:00,65.1,19.2,29.68,North,353,1.0,2.0,17,0.00,,,0.00,0,WeatherCatV1.11B39,2013-05-22 09:36:00,
2013-05-22 02:41:00,64.3,19.9,29.68,North,353,1.0,1.0,18,0.00,,,0.00,0,WeatherCatV1.11B39,2013-05-22 09:41:00,
2013-05-22 02:46:00,63.9,20.8,29.68,North,353,0.0,2.0,19,0.00,,,0.00,0,WeatherCatV1.11B39,2013-05-22 09:46:00,
2013-05-22 02:51:00,63.6,20.6,29.68,North,353,0.0,2.0,19,0.00,,,0.00,0,WeatherCatV1.11B39,2013-05-22 09:51:00,
2013-05-22 02:56:00,63.6,20.6,29.68,North,353,1.0,2.0,19,0.00,,,0.00,0,WeatherCatV1.11B39,2013-05-22 09:56:00,
2013-05-22 03:01:00,63.2,22.6,29.68,North,353,2.0,2.0,21,0.00,,,0.00,0,WeatherCatV1.11B39,2013-05-22 10:01:00,
2013-05-22 03:06:00,62.7,22.2,29.68,North,353,1.0,3.0,21,0.00,,,0.00,0,WeatherCatV1.11B39,2013-05-22 10:06:00,
2013-05-22 03:11:00,62.3,23.0,29.68,North,353,2.0,2.0,22,0.00,,,0.00,0,WeatherCatV1.11B39,2013-05-22 10:11:00,
2013-05-22 03:16:00,62.0,21.6,29.68,North,353,2.0,2.0,21,0.00,,,0.00,0,WeatherCatV1.11B39,2013-05-22 10:16:00,
2013-05-22 03:21:00,62.0,21.6,29.68,North,353,1.0,2.0,21,0.00,,,0.00,0,WeatherCatV1.11B39,2013-05-22 10:21:00,
2013-05-22 03:26:00,61.8,22.6,29.68,North,353,0.0,1.0,22,0.00,,,0.00,0,WeatherCatV1.11B39,2013-05-22 10:26:00,
2013-05-22 03:31:00,61.0,22.9,29.68,North,353,0.0,1.0,23,0.00,,,0.00,0,WeatherCatV1.11B39,2013-05-22 10:31:00,
2013-05-22 03:36:00,60.4,23.4,29.68,North,353,0.0,0.0,24,0.00,,,0.00,0,WeatherCatV1.11B39,2013-05-22 10:36:00,
2013-05-22 03:41:00,60.0,23.1,29.68,North,353,0.0,0.0,24,0.00,,,0.00,0,WeatherCatV1.11B39,2013-05-22 10:41:00,
2013-05-22 03:46:00,59.7,23.8,29.68,North,353,0.0,0.0,25,0.00,,,0.00,0,WeatherCatV1.11B39,2013-05-22 10:46:00,
2013-05-22 03:51:00,59.1,24.3,29.68,North,353,0.0,0.0,26,0.00,,,0.00,0,WeatherCatV1.11B39,2013-05-22 10:51:00,
2013-05-22 03:56:00,58.8,24.9,29.68,North,353,0.0,0.0,27,0.00,,,0.00,0,WeatherCatV1.11B39,2013-05-22 10:56:00,
2013-05-22 04:01:00,58.7,24.8,29.68,North,353,0.0,1.0,27,0.00,,,0.00,0,WeatherCatV1.11B39,2013-05-22 11:01:00,
2013-05-22 04:06:00,58.7,23.9,29.68,North,353,0.0,2.0,26,0.00,,,0.00,0,WeatherCatV1.11B39,2013-05-22 11:06:00,
2013-05-22 04:11:00,58.6,23.8,29.68,North,353,0.0,0.0,26,0.00,,,0.00,0,WeatherCatV1.11B39,2013-05-22 11:11:00,
2013-05-22 04:16:00,58.4,24.6,29.68,North,353,0.0,0.0,27,0.00,,,0.00,0,WeatherCatV1.11B39,2013-05-22 11:16:00,
2013-05-22 04:21:00,58.3,23.6,29.68,North,353,0.0,0.0,26,0.00,,,0.00,0,WeatherCatV1.11B39,2013-05-22 11:21:00,
2013-05-22 04:26:00,57.9,24.1,29.68,North,353,0.0,0.0,27,0.00,,,0.00,0,WeatherCatV1.11B39,2013-05-22 11:26:00,
2013-05-22 04:31:00,57.4,24.6,29.68,North,353,0.0,1.0,28,0.00,,,0.00,0,WeatherCatV1.11B39,2013-05-22 11:31:00,
2013-05-22 04:36:00,57.2,25.2,29.68,North,353,0.0,0.0,29,0.00,,,0.00,0,WeatherCatV1.11B39,2013-05-22 11:36:00,
2013-05-22 04:41:00,57.0,25.1,29.68,North,353,1.0,2.0,29,0.00,,,0.00,0,WeatherCatV1.11B39,2013-05-22 11:41:00,
2013-05-22 04:46:00,57.3,24.5,29.68,North,353,0.0,2.0,28,0.00,,,0.00,0,WeatherCatV1.11B39,2013-05-22 11:46:00,
2013-05-22 04:51:00,57.7,24.0,29.68,North,353,1.0,1.0,27,0.00,,,0.00,0,WeatherCatV1.11B39,2013-05-22 11:51:00,
2013-05-22 04:56:00,57.9,24.1,29.68,North,353,1.0,2.0,27,0.00,,,0.00,0,WeatherCatV1.11B39,2013-05-22 11:56:00,
2013-05-22 05:01:00,57.9,24.1,29.68,North,353,1.0,2.0,27,0.00,,,0.00,0,WeatherCatV1.11B39,2013-05-22 12:01:00,
2013-05-22 05:06:00,58.1,24.3,29.68,North,353,2.0,3.0,27,0.00,,,0.00,0,WeatherCatV1.11B39,2013-05-22 12:06:00,
2013-05-22 05:11:00,58.1,23.4,29.68,North,353,0.0,1.0,26,0.00,,,0.00,0,WeatherCatV1.11B39,2013-05-22 12:11:00,
2013-05-22 05:16:00,57.8,24.0,29.69,North,353,0.0,1.0,27,0.00,,,0.00,0,WeatherCatV1.11B39,2013-05-22 12:16:00,
2013-05-22 05:21:00,57.8,24.0,29.69,North,353,0.0,1.0,27,0.00,,,0.00,5,WeatherCatV1.11B39,2013-05-22 12:21:00,
2013-05-22 05:26:00,58.3,24.5,29.69,North,353,1.0,1.0,27,0.00,,,0.00,7,WeatherCatV1.11B39,2013-05-22 12:26:00,
2013-05-22 05:31:00,58.2,25.3,29.69,North,353,1.0,2.0,28,0.00,,,0.00,11,WeatherCatV1.11B39,2013-05-22 12:31:00,
2013-05-22 05:36:00,58.4,25.4,29.69,North,353,2.0,2.0,28,0.00,,,0.00,14,WeatherCatV1.11B39,2013-05-22 12:36:00,
2013-05-22 05:41:00,59.0,25.9,29.69,North,353,2.0,3.0,28,0.00,,,0.00,16,WeatherCatV1.11B39,2013-05-22 12:41:00,
2013-05-22 05:46:00,60.4,25.4,29.69,North,353,2.0,2.0,26,0.00,,,0.00,18,WeatherCatV1.11B39,2013-05-22 12:46:00,
2013-05-22 05:51:00,61.0,25.9,29.69,North,353,0.0,0.0,26,0.00,,,0.00,25,WeatherCatV1.11B39,2013-05-22 12:51:00,
2013-05-22 05:56:00,61.1,26.0,29.69,North,353,0.0,1.0,26,0.00,,,0.00,23,WeatherCatV1.11B39,2013-05-22 12:56:00,
2013-05-22 06:01:00,60.6,27.3,29.69,North,353,0.0,2.0,28,0.00,,,0.00,39,WeatherCatV1.11B39,2013-05-22 13:01:00,
2013-05-22 06:06:00,61.0,27.7,29.69,North,353,0.0,3.0,28,0.00,,,0.00,67,WeatherCatV1.11B39,2013-05-22 13:06:00,
2013-05-22 06:11:00,61.6,27.3,29.69,North,353,0.0,0.0,27,0.00,,,0.00,42,WeatherCatV1.11B39,2013-05-22 13:11:00,
2013-05-22 06:16:00,61.7,29.1,29.70,North,353,0.0,0.0,29,0.00,,,0.00,54,WeatherCatV1.11B39,2013-05-22 13:16:00,
2013-05-22 06:21:00,61.6,31.5,29.70,North,353,0.0,0.0,32,0.00,,,0.00,95,WeatherCatV1.11B39,2013-05-22 13:21:00,
2013-05-22 06:26:00,62.5,31.5,29.70,North,353,0.0,0.0,31,0.00,,,0.00,111,WeatherCatV1.11B39,2013-05-22 13:26:00,
2013-05-22 06:31:00,63.0,32.7,29.70,North,353,0.0,0.0,32,0.00,,,0.00,86,WeatherCatV1.11B39,2013-05-22 13:31:00,
2013-05-22 06:36:00,63.4,33.0,29.70,North,353,0.0,1.0,32,0.00,,,0.00,163,WeatherCatV1.11B39,2013-05-22 13:36:00,
2013-05-22 06:41:00,64.7,34.2,29.70,North,353,0.0,1.0,32,0.00,,,0.00,204,WeatherCatV1.11B39,2013-05-22 13:41:00,
2013-05-22 06:46:00,66.3,34.8,29.70,North,353,0.0,1.0,31,0.00,,,0.00,214,WeatherCatV1.11B39,2013-05-22 13:46:00,
2013-05-22 06:51:00,67.8,35.2,29.70,North,353,0.0,1.0,30,0.00,,,0.00,229,WeatherCatV1.11B39,2013-05-22 13:51:00,
2013-05-22 06:56:00,68.8,33.5,29.70,North,353,1.0,2.0,27,0.00,,,0.00,246,WeatherCatV1.11B39,2013-05-22 13:56:00,
2013-05-22 07:01:00,69.7,32.3,29.70,North,353,0.0,2.0,25,0.00,,,0.00,260,WeatherCatV1.11B39,2013-05-22 14:01:00,
2013-05-22 07:06:00,70.2,31.7,29.71,North,353,1.0,1.0,24,0.00,,,0.00,276,WeatherCatV1.11B39,2013-05-22 14:06:00,
2013-05-22 07:11:00,70.7,31.1,29.71,North,353,0.0,1.0,23,0.00,,,0.00,294,WeatherCatV1.11B39,2013-05-22 14:11:00,
2013-05-22 07:16:00,71.2,32.6,29.71,North,353,1.0,2.0,24,0.00,,,0.00,311,WeatherCatV1.11B39,2013-05-22 14:16:00,
2013-05-22 07:21:00,71.9,29.8,29.71,North,353,2.0,3.0,21,0.00,,,0.00,327,WeatherCatV1.11B39,2013-05-22 14:21:00,
2013-05-22 07:26:00,72.3,30.2,29.71,North,353,0.0,2.0,21,0.00,,,0.00,346,WeatherCatV1.11B39,2013-05-22 14:26:00,
2013-05-22 07:31:00,72.9,29.5,29.72,NW,321,1.0,3.0,20,0.00,,,0.00,362,WeatherCatV1.11B39,2013-05-22 14:31:00,
2013-05-22 07:36:00,73.5,30.0,29.72,West,265,3.0,4.0,20,0.00,,,0.00,383,WeatherCatV1.11B39,2013-05-22 14:36:00,
2013-05-22 07:41:00,74.2,30.5,29.72,West,266,3.0,3.0,20,0.00,,,0.00,397,WeatherCatV1.11B39,2013-05-22 14:41:00,
2013-05-22 07:46:00,75.0,31.2,29.72,West,266,2.0,3.0,20,0.00,,,0.00,411,WeatherCatV1.11B39,2013-05-22 14:46:00,
2013-05-22 07:51:00,75.4,33.9,29.72,West,266,1.0,3.0,22,0.00,,,0.00,431,WeatherCatV1.11B39,2013-05-22 14:51:00,
2013-05-22 07:56:00,76.1,30.8,29.72,West,267,1.0,2.0,19,0.00,,,0.00,448,WeatherCatV1.11B39,2013-05-22 14:56:00,
2013-05-22 08:01:00,76.7,31.3,29.72,West,267,0.0,3.0,19,0.00,,,0.00,464,WeatherCatV1.11B39,2013-05-22 15:01:00,
2013-05-22 08:06:00,76.9,31.5,29.72,West,267,0.0,2.0,19,0.00,,,0.00,480,WeatherCatV1.11B39,2013-05-22 15:06:00,
2013-05-22 08:11:00,77.4,30.6,29.72,West,268,1.0,3.0,18,0.00,,,0.00,496,WeatherCatV1.11B39,2013-05-22 15:11:00,
2013-05-22 08:16:00,78.6,30.1,29.72,West,269,0.0,3.0,17,0.00,,,0.00,512,WeatherCatV1.11B39,2013-05-22 15:16:00,
2013-05-22 08:21:00,79.3,30.7,29.72,West,270,2.0,3.0,17,0.00,,,0.00,529,WeatherCatV1.11B39,2013-05-22 15:21:00,
2013-05-22 08:26:00,79.8,29.6,29.73,West,271,1.0,2.0,16,0.00,,,0.00,547,WeatherCatV1.11B39,2013-05-22 15:26:00,
2013-05-22 08:31:00,80.4,30.1,29.72,West,271,0.0,3.0,16,0.00,,,0.00,561,WeatherCatV1.11B39,2013-05-22 15:31:00,
2013-05-22 08:36:00,82.1,31.4,29.73,West,272,2.0,2.0,16,0.00,,,0.00,575,WeatherCatV1.11B39,2013-05-22 15:36:00,
2013-05-22 08:41:00,82.0,29.8,29.72,West,272,0.0,2.0,15,0.00,,,0.00,594,WeatherCatV1.11B39,2013-05-22 15:41:00,
2013-05-22 08:46:00,82.5,30.2,29.72,West,272,3.0,3.0,15,0.00,,,0.00,608,WeatherCatV1.11B39,2013-05-22 15:46:00,
2013-05-22 08:51:00,83.1,29.0,29.72,West,274,2.0,4.0,14,0.00,,,0.00,624,WeatherCatV1.11B39,2013-05-22 15:51:00,
2013-05-22 08:56:00,83.9,29.6,29.72,West,278,3.0,4.0,14,0.00,,,0.00,640,WeatherCatV1.11B39,2013-05-22 15:56:00,
2013-05-22 09:01:00,84.4,28.2,29.72,NW,322,4.0,5.0,13,0.00,,,0.00,654,WeatherCatV1.11B39,2013-05-22 16:01:00,
2013-05-22 09:06:00,84.6,28.3,29.72,North,353,0.0,2.0,13,0.00,,,0.00,666,WeatherCatV1.11B39,2013-05-22 16:06:00,
2013-05-22 09:11:00,84.8,30.3,29.72,WSW,249,1.0,4.0,14,0.00,,,0.00,684,WeatherCatV1.11B39,2013-05-22 16:11:00,
2013-05-22 09:16:00,86.3,29.6,29.72,WSW,247,2.0,4.0,13,0.00,,,0.00,696,WeatherCatV1.11B39,2013-05-22 16:16:00,
2013-05-22 09:21:00,86.4,27.8,29.72,WSW,245,0.0,3.0,12,0.00,,,0.00,710,WeatherCatV1.11B39,2013-05-22 16:21:00,
2013-05-22 09:26:00,86.3,27.7,29.72,WNW,282,0.0,5.0,12,0.00,,,0.00,726,WeatherCatV1.11B39,2013-05-22 16:26:00,
2013-05-22 09:31:00,86.6,27.9,29.71,West,262,1.0,6.0,12,0.00,,,0.00,740,WeatherCatV1.11B39,2013-05-22 16:31:00,
2013-05-22 09:36:00,86.9,26.1,29.71,NNW,330,3.0,7.0,11,0.00,,,0.00,756,WeatherCatV1.11B39,2013-05-22 16:36:00,
2013-05-22 09:41:00,86.9,28.2,29.71,SW,228,2.0,4.0,12,0.00,,,0.00,768,WeatherCatV1.11B39,2013-05-22 16:41:00,
2013-05-22 09:46:00,86.9,26.1,29.71,SSW,210,6.0,6.0,11,0.00,,,0.00,777,WeatherCatV1.11B39,2013-05-22 16:46:00,
2013-05-22 09:51:00,87.9,28.9,29.71,West,268,5.0,6.0,12,0.00,,,0.00,793,WeatherCatV1.11B39,2013-05-22 16:51:00,
2013-05-22 09:56:00,88.0,26.9,29.71,WSW,253,0.0,5.0,11,0.00,,,0.00,805,WeatherCatV1.11B39,2013-05-22 16:56:00,
2013-05-22 10:01:00,87.9,26.8,29.72,WSW,242,3.0,8.0,11,0.00,,,0.00,816,WeatherCatV1.11B39,2013-05-22 17:01:00,
2013-05-22 10:06:00,87.1,28.3,29.71,WNW,285,0.0,4.0,12,0.00,,,0.00,826,WeatherCatV1.11B39,2013-05-22 17:06:00,
2013-05-22 10:11:00,88.1,27.0,29.71,SW,234,1.0,1.0,11,0.00,,,0.00,838,WeatherCatV1.11B39,2013-05-22 17:11:00,
2013-05-22 10:16:00,87.9,28.9,29.71,NW,305,4.0,5.0,12,0.00,,,0.00,851,WeatherCatV1.11B39,2013-05-22 17:16:00,
2013-05-22 10:21:00,88.1,27.0,29.71,NW,306,1.0,2.0,11,0.00,,,0.00,863,WeatherCatV1.11B39,2013-05-22 17:21:00,
2013-05-22 10:26:00,89.2,27.8,29.71,SW,226,2.0,5.0,11,0.00,,,0.00,875,WeatherCatV1.11B39,2013-05-22 17:26:00,
2013-05-22 10:31:00,90.1,28.5,29.71,WSW,245,4.0,5.0,11,0.00,,,0.00,893,WeatherCatV1.11B39,2013-05-22 17:31:00,
2013-05-22 10:36:00,89.7,28.2,29.71,WNW,295,3.0,6.0,11,0.00,,,0.00,912,WeatherCatV1.11B39,2013-05-22 17:36:00,
2013-05-22 10:41:00,88.7,27.4,29.71,SSW,210,0.0,1.0,11,0.00,,,0.00,921,WeatherCatV1.11B39,2013-05-22 17:41:00,
2013-05-22 10:46:00,90.9,26.8,29.70,South,170,9.0,9.0,10,0.00,,,0.00,911,WeatherCatV1.11B39,2013-05-22 17:46:00,
2013-05-22 10:51:00,91.2,24.5,29.70,SE,136,3.0,6.0,9,0.00,,,0.00,926,WeatherCatV1.11B39,2013-05-22 17:51:00,
2013-05-22 10:56:00,90.0,23.6,29.70,SSE,156,1.0,2.0,9,0.00,,,0.00,921,WeatherCatV1.11B39,2013-05-22 17:56:00,
2013-05-22 11:01:00,90.7,26.6,29.70,SW,215,4.0,8.0,10,0.00,,,0.00,923,WeatherCatV1.11B39,2013-05-22 18:01:00,
2013-05-22 11:06:00,91.8,22.1,29.70,SW,221,6.0,12.0,8,0.00,,,0.00,939,WeatherCatV1.11B39,2013-05-22 18:06:00,
2013-05-22 11:11:00,93.2,20.0,29.70,South,176,0.0,3.0,7,0.00,,,0.00,954,WeatherCatV1.11B39,2013-05-22 18:11:00,
2013-05-22 11:16:00,92.6,19.6,29.70,NW,314,5.0,6.0,7,0.00,,,0.00,958,WeatherCatV1.11B39,2013-05-22 18:16:00,
2013-05-22 11:21:00,92.4,19.4,29.69,West,272,5.0,8.0,7,0.00,,,0.00,965,WeatherCatV1.11B39,2013-05-22 18:21:00,
2013-05-22 11:26:00,93.2,20.0,29.69,WNW,297,4.0,10.0,7,0.00,,,0.00,984,WeatherCatV1.11B39,2013-05-22 18:26:00,
2013-05-22 11:31:00,93.1,19.9,29.69,West,264,5.0,6.0,7,0.00,,,0.00,986,WeatherCatV1.11B39,2013-05-22 18:31:00,
2013-05-22 11:36:00,93.3,20.1,29.69,WSW,238,5.0,6.0,7,0.00,,,0.00,990,WeatherCatV1.11B39,2013-05-22 18:36:00,
2013-05-22 11:41:00,92.7,16.1,29.69,West,276,2.0,6.0,6,0.00,,,0.00,965,WeatherCatV1.11B39,2013-05-22 18:41:00,
2013-05-22 11:46:00,93.4,16.6,29.69,WSW,243,6.0,10.0,6,0.00,,,0.00,983,WeatherCatV1.11B39,2013-05-22 18:46:00,
2013-05-22 11:51:00,94.8,17.6,29.69,South,176,4.0,8.0,6,0.00,,,0.00,977,WeatherCatV1.11B39,2013-05-22 18:51:00,
2013-05-22 11:56:00,93.0,16.3,29.69,SSE,168,2.0,9.0,6,0.00,,,0.00,979,WeatherCatV1.11B39,2013-05-22 18:56:00,
2013-05-22 12:01:00,92.3,19.4,29.68,South,176,3.0,7.0,7,0.00,,,0.00,969,WeatherCatV1.11B39,2013-05-22 19:01:00,
2013-05-22 12:06:00,94.9,17.6,29.68,South,172,8.0,10.0,6,0.00,,,0.00,974,WeatherCatV1.11B39,2013-05-22 19:06:00,
2013-05-22 12:11:00,94.4,17.3,29.68,SSW,199,4.0,7.0,6,0.00,,,0.00,976,WeatherCatV1.11B39,2013-05-22 19:11:00,
2013-05-22 12:16:00,94.2,17.1,29.68,WSW,251,4.0,6.0,6,0.00,,,0.00,974,WeatherCatV1.11B39,2013-05-22 19:16:00,
2013-05-22 12:21:00,93.6,20.3,29.68,SW,234,7.0,11.0,7,0.00,,,0.00,967,WeatherCatV1.11B39,2013-05-22 19:21:00,
2013-05-22 12:26:00,95.0,17.7,29.67,SW,214,7.0,8.0,6,0.00,,,0.00,974,WeatherCatV1.11B39,2013-05-22 19:26:00,
2013-05-22 12:31:00,94.3,20.8,29.67,SW,234,2.0,7.0,7,0.00,,,0.00,976,WeatherCatV1.11B39,2013-05-22 19:31:00,
2013-05-22 12:36:00,94.4,20.9,29.67,NNW,327,1.0,4.0,7,0.00,,,0.00,970,WeatherCatV1.11B39,2013-05-22 19:36:00,
2013-05-22 12:41:00,94.6,21.0,29.66,WNW,301,4.0,4.0,7,0.00,,,0.00,965,WeatherCatV1.11B39,2013-05-22 19:41:00,
2013-05-22 12:46:00,95.5,21.7,29.66,WSW,248,4.0,9.0,7,0.00,,,0.00,969,WeatherCatV1.11B39,2013-05-22 19:46:00,
2013-05-22 12:51:00,94.8,21.2,29.66,WSW,249,9.0,9.0,7,0.00,,,0.00,965,WeatherCatV1.11B39,2013-05-22 19:51:00,
2013-05-22 12:56:00,95.2,21.4,29.66,WSW,242,7.0,8.0,7,0.00,,,0.00,963,WeatherCatV1.11B39,2013-05-22 19:56:00,
2013-05-22 13:01:00,95.5,21.7,29.66,West,269,3.0,8.0,7,0.00,,,0.00,958,WeatherCatV1.11B39,2013-05-22 20:01:00,
2013-05-22 13:06:00,94.8,21.2,29.65,WSW,257,0.0,6.0,7,0.00,,,0.00,958,WeatherCatV1.11B39,2013-05-22 20:06:00,
2013-05-22 13:11:00,96.0,22.0,29.65,WNW,290,7.0,9.0,7,0.00,,,0.00,953,WeatherCatV1.11B39,2013-05-22 20:11:00,
2013-05-22 13:16:00,97.4,23.0,29.65,WNW,301,4.0,9.0,7,0.00,,,0.00,947,WeatherCatV1.11B39,2013-05-22 20:16:00,
2013-05-22 13:21:00,97.3,23.0,29.64,NW,305,2.0,12.0,7,0.00,,,0.00,939,WeatherCatV1.11B39,2013-05-22 20:21:00,
2013-05-22 13:26:00,97.3,23.0,29.65,NNW,333,4.0,14.0,7,0.00,,,0.00,937,WeatherCatV1.11B39,2013-05-22 20:26:00,
2013-05-22 13:31:00,96.4,25.5,29.64,West,264,3.0,6.0,8,0.00,,,0.00,932,WeatherCatV1.11B39,2013-05-22 20:31:00,
2013-05-22 13:36:00,96.6,22.5,29.64,West,269,9.0,11.0,7,0.00,,,0.00,923,WeatherCatV1.11B39,2013-05-22 20:36:00,
2013-05-22 13:41:00,97.4,23.0,29.63,WNW,297,3.0,7.0,7,0.00,,,0.00,918,WeatherCatV1.11B39,2013-05-22 20:41:00,
2013-05-22 13:46:00,97.0,25.9,29.63,West,281,4.0,17.0,8,0.00,,,0.00,916,WeatherCatV1.11B39,2013-05-22 20:46:00,
2013-05-22 13:51:00,96.3,25.4,29.63,West,271,2.0,11.0,8,0.00,,,0.00,905,WeatherCatV1.11B39,2013-05-22 20:51:00,
2013-05-22 13:56:00,96.5,25.6,29.62,WNW,292,3.0,6.0,8,0.00,,,0.00,900,WeatherCatV1.11B39,2013-05-22 20:56:00,
2013-05-22 14:01:00,96.7,25.7,29.62,NW,317,3.0,7.0,8,0.00,,,0.00,886,WeatherCatV1.11B39,2013-05-22 21:01:00,
2013-05-22 14:06:00,96.7,25.7,29.62,NNE,26,2.0,5.0,8,0.00,,,0.00,877,WeatherCatV1.11B39,2013-05-22 21:06:00,
2013-05-22 14:11:00,97.4,26.2,29.62,WNW,292,2.0,4.0,8,0.00,,,0.00,870,WeatherCatV1.11B39,2013-05-22 21:11:00,
2013-05-22 14:16:00,98.2,23.6,29.61,WNW,300,4.0,9.0,7,0.00,,,0.00,865,WeatherCatV1.11B39,2013-05-22 21:16:00,
2013-05-22 14:21:00,97.3,23.0,29.61,SW,232,7.0,11.0,7,0.00,,,0.00,856,WeatherCatV1.11B39,2013-05-22 21:21:00,
2013-05-22 14:26:00,98.5,23.8,29.61,West,259,9.0,10.0,7,0.00,,,0.00,847,WeatherCatV1.11B39,2013-05-22 21:26:00,
2013-05-22 14:31:00,98.0,23.5,29.61,SSW,200,4.0,8.0,7,0.00,,,0.00,835,WeatherCatV1.11B39,2013-05-22 21:31:00,
2013-05-22 14:36:00,97.6,23.2,29.60,North,10,3.0,6.0,7,0.00,,,0.00,824,WeatherCatV1.11B39,2013-05-22 21:36:00,
2013-05-22 14:41:00,98.7,27.2,29.60,WNW,292,4.0,9.0,8,0.00,,,0.00,816,WeatherCatV1.11B39,2013-05-22 21:41:00,
2013-05-22 14:46:00,98.7,24.0,29.60,West,270,6.0,8.0,7,0.00,,,0.00,805,WeatherCatV1.11B39,2013-05-22 21:46:00,
2013-05-22 14:51:00,98.3,26.9,29.59,WSW,249,6.0,10.0,8,0.00,,,0.00,793,WeatherCatV1.11B39,2013-05-22 21:51:00,
2013-05-22 14:56:00,99.3,27.6,29.59,WNW,301,7.0,10.0,8,0.00,,,0.00,780,WeatherCatV1.11B39,2013-05-22 21:56:00,
2013-05-22 15:01:00,98.2,26.8,29.59,WNW,288,4.0,14.0,8,0.00,,,0.00,766,WeatherCatV1.11B39,2013-05-22 22:01:00,
2013-05-22 15:07:00,98.0,23.5,29.59,WSW,243,5.0,13.0,7,0.00,,,0.00,758,WeatherCatV1.11B39,2013-05-22 22:07:00,
2013-05-22 15:12:00,98.0,23.5,29.59,West,272,10.0,14.0,7,0.00,,,0.00,747,WeatherCatV1.11B39,2013-05-22 22:12:00,
2013-05-22 15:17:00,98.0,23.5,29.58,WSW,249,7.0,13.0,7,0.00,,,0.00,733,WeatherCatV1.11B39,2013-05-22 22:17:00,
2013-05-22 15:22:00,98.5,23.8,29.58,SW,215,6.0,12.0,7,0.00,,,0.00,714,WeatherCatV1.11B39,2013-05-22 22:22:00,
2013-05-22 15:27:00,98.4,23.8,29.58,West,269,8.0,16.0,7,0.00,,,0.00,703,WeatherCatV1.11B39,2013-05-22 22:27:00,
2013-05-22 15:32:00,99.3,24.4,29.58,WSW,255,5.0,13.0,7,0.00,,,0.00,694,WeatherCatV1.11B39,2013-05-22 22:32:00,
2013-05-22 15:37:00,98.5,23.8,29.57,WNW,284,3.0,7.0,7,0.00,,,0.00,673,WeatherCatV1.11B39,2013-05-22 22:37:00,
2013-05-22 15:42:00,97.9,23.4,29.57,WSW,249,8.0,12.0,7,0.00,,,0.00,661,WeatherCatV1.11B39,2013-05-22 22:42:00,
2013-05-22 15:47:00,98.7,24.0,29.57,West,269,13.0,14.0,7,0.00,,,0.00,650,WeatherCatV1.11B39,2013-05-22 22:47:00,
2013-05-22 15:52:00,99.6,24.6,29.57,SW,222,3.0,12.0,7,0.00,,,0.00,628,WeatherCatV1.11B39,2013-05-22 22:52:00,
2013-05-22 15:57:00,99.3,24.4,29.57,West,263,5.0,7.0,7,0.00,,,0.00,615,WeatherCatV1.11B39,2013-05-22 22:57:00,
2013-05-22 16:02:00,98.1,23.5,29.57,West,281,5.0,8.0,7,0.00,,,0.00,606,WeatherCatV1.11B39,2013-05-22 23:02:00,
2013-05-22 16:07:00,97.8,23.3,29.56,West,270,5.0,11.0,7,0.00,,,0.00,585,WeatherCatV1.11B39,2013-05-22 23:07:00,
2013-05-22 16:12:00,98.1,23.5,29.56,WSW,242,6.0,12.0,7,0.00,,,0.00,573,WeatherCatV1.11B39,2013-05-22 23:12:00,
2013-05-22 16:17:00,98.0,23.5,29.56,SW,220,5.0,9.0,7,0.00,,,0.00,557,WeatherCatV1.11B39,2013-05-22 23:17:00,
2013-05-22 16:22:00,98.3,23.7,29.56,West,280,8.0,11.0,7,0.00,,,0.00,538,WeatherCatV1.11B39,2013-05-22 23:22:00,
2013-05-22 16:27:00,97.5,23.1,29.56,WSW,240,2.0,10.0,7,0.00,,,0.00,524,WeatherCatV1.11B39,2013-05-22 23:27:00,
2013-05-22 16:32:00,97.3,23.0,29.56,SW,230,7.0,11.0,7,0.00,,,0.00,506,WeatherCatV1.11B39,2013-05-22 23:32:00,
2013-05-22 16:37:00,98.1,23.5,29.56,SSW,199,4.0,11.0,7,0.00,,,0.00,489,WeatherCatV1.11B39,2013-05-22 23:37:00,
2013-05-22 16:42:00,97.7,23.3,29.56,WSW,238,3.0,9.0,7,0.00,,,0.00,473,WeatherCatV1.11B39,2013-05-22 23:42:00,
2013-05-22 16:47:00,97.4,23.0,29.55,WNW,288,8.0,8.0,7,0.00,,,0.00,461,WeatherCatV1.11B39,2013-05-22 23:47:00,
2013-05-22 16:52:00,97.9,23.4,29.55,WSW,247,6.0,14.0,7,0.00,,,0.00,441,WeatherCatV1.11B39,2013-05-22 23:52:00,
2013-05-22 16:57:00,97.6,23.2,29.55,WNW,299,9.0,13.0,7,0.00,,,0.00,427,WeatherCatV1.11B39,2013-05-22 23:57:00,
2013-05-22 17:02:00,97.6,23.2,29.55,SW,233,7.0,12.0,7,0.00,,,0.00,410,WeatherCatV1.11B39,2013-05-23 00:02:00,
2013-05-22 17:07:00,97.4,23.0,29.55,WSW,238,6.0,10.0,7,0.00,,,0.00,390,WeatherCatV1.11B39,2013-05-23 00:07:00,
2013-05-22 17:12:00,97.4,23.0,29.55,WSW,254,5.0,19.0,7,0.00,,,0.00,373,WeatherCatV1.11B39,2013-05-23 00:12:00,
2013-05-22 17:17:00,97.0,22.7,29.55,West,269,14.0,14.0,7,0.00,,,0.00,359,WeatherCatV1.11B39,2013-05-23 00:17:00,
2013-05-22 17:22:00,96.8,22.6,29.55,West,271,6.0,15.0,7,0.00,,,0.00,341,WeatherCatV1.11B39,2013-05-23 00:22:00,
2013-05-22 17:27:00,96.5,22.4,29.55,WSW,237,6.0,10.0,7,0.00,,,0.00,325,WeatherCatV1.11B39,2013-05-23 00:27:00,
2013-05-22 17:32:00,96.6,22.5,29.55,West,264,7.0,15.0,7,0.00,,,0.00,309,WeatherCatV1.11B39,2013-05-23 00:32:00,
2013-05-22 17:37:00,96.4,22.3,29.55,WSW,245,4.0,11.0,7,0.00,,,0.00,290,WeatherCatV1.11B39,2013-05-23 00:37:00,
2013-05-22 17:42:00,96.3,22.2,29.55,WSW,255,6.0,16.0,7,0.00,,,0.00,274,WeatherCatV1.11B39,2013-05-23 00:42:00,
2013-05-22 17:47:00,96.1,22.1,29.55,WNW,301,7.0,11.0,7,0.00,,,0.00,257,WeatherCatV1.11B39,2013-05-23 00:47:00,
2013-05-22 17:52:00,96.0,22.0,29.55,WNW,285,9.0,9.0,7,0.00,,,0.00,236,WeatherCatV1.11B39,2013-05-23 00:52:00,
2013-05-22 17:57:00,95.9,22.0,29.55,West,263,6.0,14.0,7,0.00,,,0.00,218,WeatherCatV1.11B39,2013-05-23 00:57:00,
2013-05-22 18:02:00,95.5,21.7,29.55,West,271,10.0,13.0,7,0.00,,,0.00,200,WeatherCatV1.11B39,2013-05-23 01:02:00,
2013-05-22 18:07:00,95.1,21.4,29.55,WSW,257,4.0,10.0,7,0.00,,,0.00,178,WeatherCatV1.11B39,2013-05-23 01:07:00,
2013-05-22 18:12:00,95.2,21.4,29.56,West,272,7.0,11.0,7,0.00,,,0.00,158,WeatherCatV1.11B39,2013-05-23 01:12:00,
2013-05-22 18:17:00,94.7,21.1,29.56,West,278,11.0,20.0,7,0.00,,,0.00,141,WeatherCatV1.11B39,2013-05-23 01:17:00,
2013-05-22 18:22:00,94.3,20.8,29.56,West,269,8.0,13.0,7,0.00,,,0.00,120,WeatherCatV1.11B39,2013-05-23 01:22:00,
2013-05-22 18:27:00,93.9,20.5,29.56,SW,231,5.0,13.0,7,0.00,,,0.00,104,WeatherCatV1.11B39,2013-05-23 01:27:00,
2013-05-22 18:32:00,93.5,23.4,29.56,WSW,250,10.0,11.0,8,0.00,,,0.00,84,WeatherCatV1.11B39,2013-05-23 01:32:00,
2013-05-22 18:37:00,93.3,23.2,29.56,SW,234,7.0,13.0,8,0.00,,,0.00,70,WeatherCatV1.11B39,2013-05-23 01:37:00,
2013-05-22 18:42:00,92.9,22.9,29.56,WSW,250,4.0,11.0,8,0.00,,,0.00,58,WeatherCatV1.11B39,2013-05-23 01:42:00,
2013-05-22 18:47:00,92.5,22.6,29.56,WSW,257,5.0,8.0,8,0.00,,,0.00,46,WeatherCatV1.11B39,2013-05-23 01:47:00,
2013-05-22 18:52:00,92.1,22.3,29.56,WNW,284,8.0,9.0,8,0.00,,,0.00,30,WeatherCatV1.11B39,2013-05-23 01:52:00,
2013-05-22 18:57:00,91.7,22.1,29.56,West,281,12.0,12.0,8,0.00,,,0.00,19,WeatherCatV1.11B39,2013-05-23 01:57:00,
2013-05-22 19:02:00,91.3,21.8,29.57,SW,234,13.0,14.0,8,0.00,,,0.00,14,WeatherCatV1.11B39,2013-05-23 02:02:00,
2013-05-22 19:07:00,90.9,21.5,29.57,West,267,5.0,9.0,8,0.00,,,0.00,12,WeatherCatV1.11B39,2013-05-23 02:07:00,
2013-05-22 19:12:00,90.5,21.2,29.57,WSW,256,7.0,8.0,8,0.00,,,0.00,9,WeatherCatV1.11B39,2013-05-23 02:12:00,
2013-05-22 19:17:00,90.0,20.8,29.57,WNW,299,7.0,9.0,8,0.00,,,0.00,5,WeatherCatV1.11B39,2013-05-23 02:17:00,
2013-05-22 19:22:00,89.7,20.6,29.57,WSW,237,3.0,10.0,8,0.00,,,0.00,0,WeatherCatV1.11B39,2013-05-23 02:22:00,
2013-05-22 19:27:00,89.4,23.1,29.58,WSW,240,3.0,5.0,9,0.00,,,0.00,0,WeatherCatV1.11B39,2013-05-23 02:27:00,
2013-05-22 19:32:00,88.9,22.8,29.58,West,276,4.0,6.0,9,0.00,,,0.00,0,WeatherCatV1.11B39,2013-05-23 02:32:00,
2013-05-22 19:37:00,88.5,22.5,29.58,West,276,4.0,8.0,9,0.00,,,0.00,0,WeatherCatV1.11B39,2013-05-23 02:37:00,
2013-05-22 19:42:00,88.1,22.2,29.58,WSW,254,3.0,5.0,9,0.00,,,0.00,0,WeatherCatV1.11B39,2013-05-23 02:42:00,
2013-05-22 19:47:00,87.6,24.3,29.58,WSW,251,3.0,3.0,10,0.00,,,0.00,0,WeatherCatV1.11B39,2013-05-23 02:47:00,
2013-05-22 19:52:00,87.1,23.9,29.58,West,259,5.0,8.0,10,0.00,,,0.00,0,WeatherCatV1.11B39,2013-05-23 02:52:00,
2013-05-22 19:57:00,86.8,23.7,29.59,West,272,2.0,3.0,10,0.00,,,0.00,0,WeatherCatV1.11B39,2013-05-23 02:57:00,
2013-05-22 20:02:00,86.8,23.7,29.59,West,267,4.0,5.0,10,0.00,,,0.00,0,WeatherCatV1.11B39,2013-05-23 03:02:00,
2013-05-22 20:07:00,86.7,23.6,29.59,West,269,3.0,5.0,10,0.00,,,0.00,0,WeatherCatV1.11B39,2013-05-23 03:07:00,
2013-05-22 20:12:00,86.2,25.5,29.59,West,269,1.0,3.0,11,0.00,,,0.00,0,WeatherCatV1.11B39,2013-05-23 03:12:00,
2013-05-22 20:17:00,85.2,24.8,29.59,West,269,1.0,3.0,11,0.00,,,0.00,0,WeatherCatV1.11B39,2013-05-23 03:17:00,
2013-05-22 20:22:00,84.1,26.0,29.59,West,269,0.0,2.0,12,0.00,,,0.00,0,WeatherCatV1.11B39,2013-05-23 03:22:00,
2013-05-22 20:27:00,83.4,27.4,29.59,West,269,1.0,3.0,13,0.00,,,0.00,0,WeatherCatV1.11B39,2013-05-23 03:27:00,
2013-05-22 20:32:00,82.8,26.9,29.59,West,269,2.0,2.0,13,0.00,,,0.00,0,WeatherCatV1.11B39,2013-05-23 03:32:00,
2013-05-22 20:37:00,82.2,26.5,29.60,West,269,2.0,2.0,13,0.00,,,0.00,0,WeatherCatV1.11B39,2013-05-23 03:37:00,
2013-05-22 20:42:00,82.3,26.5,29.60,WSW,258,1.0,5.0,13,0.00,,,0.00,0,WeatherCatV1.11B39,2013-05-23 03:42:00,
2013-05-22 20:47:00,82.3,26.5,29.60,WSW,258,2.0,3.0,13,0.00,,,0.00,0,WeatherCatV1.11B39,2013-05-23 03:47:00,
2013-05-22 20:52:00,82.2,26.5,29.60,WSW,258,0.0,2.0,13,0.00,,,0.00,0,WeatherCatV1.11B39,2013-05-23 03:52:00,
2013-05-22 20:57:00,81.3,27.5,29.61,WSW,258,1.0,1.0,14,0.00,,,0.00,0,WeatherCatV1.11B39,2013-05-23 03:57:00,
2013-05-22 21:01:00,81.0,27.3,29.61,WSW,258,0.0,1.0,14,0.00,,,0.00,0,WeatherCatV1.11B39,2013-05-23 04:01:00,
2013-05-22 21:06:00,80.5,28.6,29.61,WSW,258,1.0,2.0,15,0.00,,,0.00,0,WeatherCatV1.11B39,2013-05-23 04:06:00,
2013-05-22 21:11:00,80.4,26.8,29.61,WSW,258,0.0,2.0,14,0.00,,,0.00,0,WeatherCatV1.11B39,2013-05-23 04:11:00,
2013-05-22 21:16:00,80.1,31.3,29.61,WSW,258,0.0,0.0,17,0.00,,,0.00,0,WeatherCatV1.11B39,2013-05-23 04:16:00,
2013-05-22 21:21:00,78.6,28.6,29.62,WSW,258,0.0,1.0,16,0.00,,,0.00,0,WeatherCatV1.11B39,2013-05-23 04:21:00,
2013-05-22 21:26:00,77.6,27.8,29.62,WSW,258,0.0,1.0,16,0.00,,,0.00,0,WeatherCatV1.11B39,2013-05-23 04:26:00,
2013-05-22 21:31:00,77.0,27.4,29.62,WSW,257,0.0,1.0,16,0.00,,,0.00,0,WeatherCatV1.11B39,2013-05-23 04:31:00,
2013-05-22 21:36:00,76.5,28.4,29.63,WSW,257,1.0,1.0,17,0.00,,,0.00,0,WeatherCatV1.11B39,2013-05-23 04:36:00,
2013-05-22 21:41:00,75.1,28.7,29.63,WSW,258,0.0,0.0,18,0.00,,,0.00,0,WeatherCatV1.11B39,2013-05-23 04:41:00,
2013-05-22 21:46:00,75.5,29.0,29.63,WSW,258,2.0,2.0,18,0.00,,,0.00,0,WeatherCatV1.11B39,2013-05-23 04:46:00,
2013-05-22 21:51:00,75.6,29.1,29.63,WSW,258,0.0,0.0,18,0.00,,,0.00,0,WeatherCatV1.11B39,2013-05-23 04:51:00,
2013-05-22 21:56:00,75.6,29.1,29.63,WSW,258,0.0,1.0,18,0.00,,,0.00,0,WeatherCatV1.11B39,2013-05-23 04:56:00,
2013-05-22 22:01:00,75.4,28.9,29.64,WSW,258,0.0,0.0,18,0.00,,,0.00,0,WeatherCatV1.11B39,2013-05-23 05:01:00,
2013-05-22 22:06:00,74.8,29.8,29.63,WSW,258,0.0,1.0,19,0.00,,,0.00,0,WeatherCatV1.11B39,2013-05-23 05:06:00,
2013-05-22 22:11:00,74.5,29.5,29.64,WSW,258,0.0,1.0,19,0.00,,,0.00,0,WeatherCatV1.11B39,2013-05-23 05:11:00,
2013-05-22 22:16:00,74.1,29.2,29.64,WSW,258,1.0,1.0,19,0.00,,,0.00,0,WeatherCatV1.11B39,2013-05-23 05:16:00,
2013-05-22 22:21:00,73.8,27.6,29.64,WSW,258,1.0,1.0,18,0.00,,,0.00,0,WeatherCatV1.11B39,2013-05-23 05:21:00,
2013-05-22 22:26:00,73.2,28.5,29.64,WSW,258,1.0,1.0,19,0.00,,,0.00,0,WeatherCatV1.11B39,2013-05-23 05:26:00,
2013-05-22 22:31:00,73.6,28.8,29.64,WSW,258,1.0,1.0,19,0.00,,,0.00,0,WeatherCatV1.11B39,2013-05-23 05:31:00,
2013-05-22 22:36:00,73.1,28.4,29.64,WSW,258,1.0,1.0,19,0.00,,,0.00,0,WeatherCatV1.11B39,2013-05-23 05:36:00,
2013-05-22 22:41:00,73.1,27.1,29.64,WSW,258,0.0,1.0,18,0.00,,,0.00,0,WeatherCatV1.11B39,2013-05-23 05:41:00,
2013-05-22 22:46:00,72.6,28.0,29.65,WSW,258,1.0,2.0,19,0.00,,,0.00,0,WeatherCatV1.11B39,2013-05-23 05:46:00,
2013-05-22 22:51:00,72.5,27.9,29.65,WSW,258,1.0,1.0,19,0.00,,,0.00,0,WeatherCatV1.11B39,2013-05-23 05:51:00,
2013-05-22 22:56:00,71.9,27.4,29.65,WSW,258,1.0,2.0,19,0.00,,,0.00,0,WeatherCatV1.11B39,2013-05-23 05:56:00,
2013-05-22 23:01:00,71.4,28.2,29.65,WSW,258,1.0,2.0,20,0.00,,,0.00,0,WeatherCatV1.11B39,2013-05-23 06:01:00,
2013-05-22 23:06:00,71.3,28.2,29.65,WSW,258,3.0,3.0,20,0.00,,,0.00,0,WeatherCatV1.11B39,2013-05-23 06:06:00,
2013-05-22 23:11:00,71.3,28.2,29.65,WSW,258,0.0,1.0,20,0.00,,,0.00,0,WeatherCatV1.11B39,2013-05-23 06:11:00,
2013-05-22 23:16:00,71.2,28.1,29.65,WSW,258,1.0,2.0,20,0.00,,,0.00,0,WeatherCatV1.11B39,2013-05-23 06:16:00,
2013-05-22 23:21:00,70.8,27.7,29.65,WSW,258,0.0,1.0,20,0.00,,,0.00,0,WeatherCatV1.11B39,2013-05-23 06:21:00,
2013-05-22 23:26:00,70.1,28.4,29.66,West,259,2.0,3.0,21,0.00,,,0.00,0,WeatherCatV1.11B39,2013-05-23 06:26:00,
2013-05-22 23:30:00,70.7,27.7,29.65,West,259,0.0,2.0,20,0.00,,,0.00,0,WeatherCatV1.11B39,2013-05-23 06:30:00,
2013-05-22 23:35:00,71.0,27.9,29.65,West,259,0.0,1.0,20,0.00,,,0.00,0,WeatherCatV1.11B39,2013-05-23 06:35:00,
2013-05-22 23:40:00,70.4,27.4,29.66,West,259,1.0,1.0,20,0.00,,,0.00,0,WeatherCatV1.11B39,2013-05-23 06:40:00,
2013-05-22 23:45:00,69.1,27.5,29.66,West,259,1.0,2.0,21,0.00,,,0.00,0,WeatherCatV1.11B39,2013-05-23 06:45:00,
2013-05-22 23:50:00,68.6,28.2,29.66,West,259,2.0,2.0,22,0.00,,,0.00,0,WeatherCatV1.11B39,2013-05-23 06:50:00,
2013-05-22 23:55:00,68.5,28.2,29.66,West,259,0.0,2.0,22,0.00,,,0.00,0,WeatherCatV1.11B39,2013-05-23 06:55:00,